Home   Weather   Pasadena   Past weeks

Flag for USA Past Weather in Pasadena, Texas, USA — Yesterday and Last 2 Weeks

Now
57 °F

Fog.


Feels Like: 57 °F
Forecast: 60 / 82 °F
Wind: No wind

Location: Houston / Ellington

Current Time: Feb 23, 2017 at 7:48:33 am

Latest Report: Feb 23, 2017 at 6:50 am


Visibility: 6 mi

Pressure: 29.79 "Hg

Humidity: 88%

Dew Point: 54 °F

Location of PasadenaLocation

Past Weather in Pasadena — Graph

°F

Pasadena Temperature Yesterday

Maximum temperature yesterday: 82 °F (at 3:50 pm)
Minimum temperature yesterday: 55 °F (at 5:50 am)
Average temperature yesterday: 68 °F

High & Low Weather Summary for the Past Weeks

 TemperatureHumidityPressure
High84 °F (Feb 8, 4:50 pm)100% (Feb 14, 3:50 am)30.34 "Hg (Feb 14, 3:50 am)
Low46 °F (Feb 16, 6:50 am)25% (Feb 16, 7:50 pm)29.76 "Hg (Feb 23, 3:50 am)
Average66 °F73%30.01 "Hg
* Reported Feb 8 5:50 am — Feb 23 5:50 am, Pasadena, Weather by CustomWeather, © 2017

Note: Actual official high and low records may vary slightly from our data, if they occured in-between our weather recording intervals... More about our weather records

Advertising

Pasadena Weather History for the Previous 24 Hours

Scroll right to see more
 ConditionsComfort  
Time TempWeatherWind HumidityBarometerVisibility
5:50 am
Thu, Feb 23
57 °FClear.No wind88%29.77 "Hg10 mi
3:50 am59 °FClear.3 mph77%29.76 "Hg10 mi
12:50 am61 °FClear.3 mph72%29.79 "Hg10 mi
11:50 pm
Wed, Feb 22
63 °FClear.2 mph64%29.82 "Hg10 mi
10:50 pm63 °FClear.3 mph64%29.83 "Hg10 mi
9:50 pm63 °FClear.No wind64%29.84 "Hg10 mi
8:50 pm64 °FClear.6 mph60%29.84 "Hg10 mi
6:50 pm72 °FClear.5 mph50%29.82 "Hg10 mi
5:50 pm77 °FSunny.9 mph34%29.81 "Hg10 mi
4:50 pm82 °FSunny.5 mph30%29.82 "Hg10 mi
3:50 pm82 °FSunny.5 mph30%29.82 "Hg10 mi
2:50 pm81 °FSunny.7 mph37%29.84 "Hg10 mi
1:50 pm81 °FSunny.1 mph42%29.85 "Hg10 mi
12:50 pm79 °FSunny.6 mph45%29.88 "Hg10 mi
11:50 am77 °FSunny.6 mph39%29.90 "Hg10 mi
10:50 am73 °FSunny.7 mph41%29.94 "Hg10 mi
9:50 am73 °FSunny.6 mph41%29.94 "Hg10 mi
8:50 am61 °FSunny.6 mph63%29.94 "Hg10 mi
7:50 am57 °FSunny.3 mph72%29.93 "Hg10 mi
Weather by CustomWeather, © 2017

See weather overviewHow to use our weather pages